Vertical_Velocity
-2 -2 -3 -1 2 -4 4 10 -6 0 2 -4 -5 -1 -1 -7 -1 12 -3 -0 -4 -2 -1 -1 -1 1 4 1 3 4 4 10 8 5 4 2 1 1 2 0 2 0 0 1 1 3 2 1 -0
-2 -2 -3 -3 0 6 21 -4 2 0 2 -4 -4 -1 -0 5 1 -3 -1 -1 -3 0 -3 -1 1 -2 0 5 5 5 -1 -2 -0 -1 4 7 5 1 -0 2 1 2 1 0 2 1 3 -1 1
-2 -0 -1 2 -1 14 15 -6 -1 2 -2 -6 -4 0 -7 -5 -2 -0 -1 1 -4 -2 -1 -0 2 1 -1 1 4 6 3 -2 -1 -1 0 -0 0 6 3 -0 1 -0 -0 0 -1 -1 -0 1 1
-0 -0 -2 -0 3 -6 -7 -1 -3 2 2 -6 2 1 1 -2 -1 -4 -2 -1 -4 -1 2 1 2 7 6 1 -1 -2 -5 -1 -1 1 -0 0 -1 1 2 1 1 1 1 -2 -1 2 -1 -1 0
-0 -1 5 0 -2 -4 -7 -10 -12 -7 0 -3 -9 4 3 3 1 0 -2 -5 -1 -2 -4 -0 3 3 4 2 4 4 4 -2 -4 -15 -9 -1 1 3 4 2 1 0 1 2 1 -3 6 -4 2
2 1 1 4 8 2 2 -5 -7 -4 -1 0 3 -2 -3 -2 -3 -3 2 0 -1 -5 -4 -7 -1 3 -1 -1 0 -3 -2 2 6 -3 -9 5 3 -1 2 -1 1 2 -1 0 -1 -1 7 -5 -1
-2 4 0 -1 1 2 2 -0 0 -2 -4 4 -3 0 -3 -5 -3 -5 -8 -6 -4 -7 -0 -6 -3 -2 7 8 6 4 -1 1 -2 3 -18 3 1 3 5 -1 1 3 0 3 8 -2 3 -5 -1
-2 -3 0 0 10 3 2 2 1 -3 2 -5 -5 4 13 3 3 -5 -5 -8 -4 -2 1 -1 -2 3 -1 0 5 3 -1 -2 1 -3 -0 4 1 -1 2 -1 1 1 1 1 2 1 7 0 0
0 1 -1 1 5 9 -3 1 -8 -3 -0 -6 -3 -0 -4 -13 -9 -1 5 -3 -4 0 -1 -1 -3 8 -5 -9 5 4 3 5 6 3 1 -5 3 9 4 2 3 2 1 6 1 1 3 -3 -0
-0 -1 -2 -3 -4 -5 6 -2 6 1 4 -4 -1 -1 -1 -5 1 -6 -6 4 -1 -0 -4 2 8 -4 7 5 -5 1 5 2 2 -1 5 7 2 -10 4 8 -3 -1 0 4 0 -1 1 0 3
4 -9 14 7 4 6 -0 1 11 5 -5 8 5 7 -9 -3 -2 -3 -2 -4 -2 2 3 -11 -0 5 3 3 4 -4 -5 4 7 9 6 3 2 9 -4 1 6 9 2 3 -2 -1 -1 2 -10
-3 -3 -3 -6 -7 -2 -6 -12 -8 4 -0 5 5 -0 4 1 -3 2 4 4 0 -2 5 4 0 -11 3 -1 1 6 1 4 -1 2 5 4 6 3 11 1 3 5 8 3 -2 3 -1 2 2
-3 -1 4 1 -6 6 0 -1 -0 -18 7 2 -1 -1 2 -1 -4 -4 -1 -6 3 2 -1 4 2 6 -7 6 -0 -1 0 1 2 -1 2 -1 0 -2 0 7 4 5 5 4 4 2 0 -0 1
-8 -12 -9 -5 -1 0 -4 -1 5 -18 1 -0 4 0 -0 1 1 -2 -2 3 -3 -2 6 1 -0 5 -0 0 8 3 -2 -1 -0 -1 3 -1 -1 5 -1 6 8 5 6 6 6 5 4 -2 4
2 0 4 -3 -3 -5 1 -6 -18 1 -3 4 -2 -3 1 3 2 4 -0 1 -1 3 6 1 8 -8 11 -9 2 6 -3 2 1 4 1 0 -2 -2 5 -3 -2 -3 1 2 5 3 6 2 7
-3 -4 -5 6 -1 7 0 -12 8 -3 -3 1 -1 3 -7 -3 -3 -2 -1 -2 -6 -2 -2 3 0 6 -8 9 -6 4 3 -1 -2 -4 4 -0 4 -2 -3 -1 -3 -4 -3 1 -0 3 4 6 3
1 -7 8 4 -4 2 7 1 0 -5 3 -0 -5 -1 -1 -2 -3 -2 -1 -0 1 -1 1 5 0 4 4 -3 4 -2 3 0 -5 2 0 1 4 -1 1 -2 -0 -2 -5 -3 1 5 5 3 2
5 13 4 -1 -6 1 -0 -4 -3 4 2 -5 -3 2 0 1 -2 10 1 0 -0 -2 -1 -8 -2 -0 -0 1 -1 -1 -2 -1 -1 -2 -1 3 -1 1 1 3 3 3 -4 -4 -4 2 -0 -1 0
2 -3 -1 -7 -1 4 -3 0 -1 3 -1 -1 1 -1 3 3 -2 5 -1 1 -1 -4 5 -4 -1 -1 -1 -2 -4 -4 1 5 -0 1 1 -1 1 -1 1 1 5 7 10 2 -1 1 1 4 -4
4 5 -7 -3 -6 3 -1 -8 -10 -7 -1 3 4 0 5 6 3 -3 1 6 -3 6 3 5 9 4 3 6 6 3 -4 -1 -1 -3 0 -1 2 -0 2 -2 2 4 3 7 -2 -7 -3 1 1
5 -3 3 4 -1 -3 -9 -32 -4 18 -5 -1 8 2 -2 4 8 2 10 1 -1 3 -4 2 3 8 5 11 11 1 -2 -0 -4 -5 -2 -3 -4 -0 1 1 1 1 -2 1 -4 -2 -2 5 1
5 8 1 -0 4 -2 24 -36 22 -13 5 -13 -13 -3 -0 2 2 4 1 -2 -2 -4 1 0 1 4 -1 -2 9 8 5 5 6 -1 1 -1 0 -2 -3 -3 2 6 3 -3 3 -1 1 8 4
-12 11 2 2 -3 0 6 13 -151 43 2 19 -2 1 7 3 4 9 5 4 -6 4 -3 -5 -8 -6 -3 1 2 7 13 8 5 2 1 1 -2 -3 2 -2 1 -4 1 -2 3 1 3 -1 2
-3 -6 2 2 4 14 -11 21 -76 14 16 -3 5 -3 3 -2 2 5 5 -3 -3 0 5 5 6 -1 1 -4 -4 1 7 4 3 3 7 1 -0 -2 -0 3 -0 2 -5 0 2 -2 1 1 -2
1 2 -3 -1 9 -14 -2 7 -39 0 -0 7 -2 5 -1 1 -1 -8 -9 -8 -2 -4 -0 -1 -2 -1 3 8 1 0 1 1 5 4 6 1 3 2 1 4 -3 2 3 0 1 4 2 -1 1
-7 -7 -1 0 1 -9 11 -11 -60 11 16 7 19 -1 10 9 8 3 -1 1 2 2 0 4 9 1 -2 2 6 6 2 1 11 7 -2 3 0 -3 1 10 2 -3 5 6 0 3 -4 4 -1
8 -6 -5 8 -9 18 -11 -28 -38 -1 -5 -5 14 14 2 6 3 4 4 2 1 1 7 9 6 5 2 2 0 -2 -2 8 3 6 4 -2 -0 1 3 -1 -0 -0 -11 5 -1 -0 2 0 -5
-5 2 2 7 2 0 -10 -9 -24 -12 -1 -22 -16 -11 -10 -13 -5 1 3 1 -6 -6 -5 -2 1 5 3 4 -5 -2 -2 15 10 9 11 4 -1 1 4 -2 0 -25 11 16 7 -5 1 1 1
3 2 8 19 11 3 -1 -32 33 -11 -2 -5 -12 -1 4 1 5 3 -3 4 -14 -3 -1 -3 1 -2 -8 8 4 1 1 3 10 17 8 11 11 1 3 7 0 -16 2 12 4 5 -0 -1 -1
11 9 1 2 -12 -9 17 -80 28 1 15 7 4 -2 -5 -1 -11 -7 2 -7 5 -11 6 -23 -5 -1 2 -0 -8 12 9 9 18 12 -1 11 5 6 -2 -7 25 -17 9 2 -1 5 -1 -2 -1
Height
3146 3147 3148 3150 3157 3152 3150 3151 3150 3151 3151 3149 3149 3149 3149 3148 3149 3150 3146 3144 3143 3141 3140 3140 3141 3142 3145 3147 3149 3152 3153 3155 3157 3160 3161 3162 3164 3165 3166 3167 3169 3169 3170 3170 3171 3171 3171 3172 3172
3146 3147 3148 3149 3152 3148 3145 3148 3149 3150 3148 3145 3146 3146 3147 3148 3146 3145 3144 3143 3141 3140 3139 3139 3138 3139 3140 3143 3145 3148 3150 3153 3157 3159 3161 3162 3162 3163 3164 3166 3167 3168 3169 3169 3170 3171 3171 3171 3171
3145 3146 3148 3149 3149 3146 3146 3147 3148 3147 3145 3144 3143 3143 3144 3145 3145 3144 3142 3141 3139 3137 3136 3136 3137 3137 3138 3140 3143 3146 3149 3151 3154 3157 3158 3160 3161 3163 3163 3164 3166 3166 3167 3168 3168 3169 3169 3169 3170
3145 3146 3146 3146 3145 3145 3145 3145 3145 3144 3143 3141 3140 3140 3141 3142 3142 3141 3140 3139 3137 3135 3134 3134 3134 3135 3136 3138 3141 3144 3146 3148 3150 3154 3156 3159 3160 3162 3162 3163 3164 3165 3166 3167 3167 3167 3167 3168 3168
3143 3144 3146 3143 3142 3140 3140 3140 3140 3141 3140 3139 3138 3141 3139 3139 3139 3139 3137 3137 3135 3134 3132 3132 3132 3133 3135 3137 3139 3143 3146 3148 3150 3153 3156 3156 3158 3160 3161 3162 3163 3163 3164 3165 3165 3165 3166 3166 3166
3142 3142 3142 3139 3139 3138 3136 3136 3136 3137 3139 3138 3137 3136 3136 3136 3136 3136 3135 3135 3134 3134 3133 3132 3131 3132 3133 3134 3136 3139 3142 3144 3146 3149 3150 3154 3156 3157 3159 3160 3160 3161 3161 3162 3162 3163 3163 3163 3164
3139 3141 3138 3136 3136 3135 3134 3132 3133 3134 3135 3137 3135 3135 3133 3133 3132 3133 3133 3133 3133 3132 3131 3131 3130 3129 3130 3131 3132 3134 3137 3140 3142 3145 3147 3150 3152 3154 3156 3157 3158 3158 3159 3159 3160 3160 3161 3161 3162
3136 3137 3135 3134 3134 3134 3131 3130 3130 3130 3131 3130 3131 3133 3133 3129 3129 3129 3129 3129 3130 3129 3129 3129 3128 3127 3128 3128 3128 3131 3133 3135 3138 3141 3144 3146 3148 3151 3152 3154 3155 3154 3155 3156 3157 3158 3159 3159 3158
3133 3134 3131 3131 3131 3131 3127 3127 3125 3124 3125 3124 3125 3125 3125 3125 3126 3125 3125 3125 3125 3126 3126 3125 3125 3125 3125 3125 3126 3126 3128 3131 3134 3136 3139 3141 3144 3147 3146 3147 3149 3149 3151 3153 3154 3155 3156 3155 3155
3129 3128 3128 3128 3126 3125 3125 3121 3122 3120 3120 3118 3118 3119 3119 3119 3120 3120 3121 3120 3120 3121 3122 3122 3121 3121 3121 3121 3122 3124 3124 3126 3128 3131 3134 3137 3140 3140 3144 3143 3144 3146 3147 3149 3149 3150 3152 3151 3151
3125 3121 3125 3123 3120 3119 3117 3117 3117 3113 3114 3115 3114 3115 3110 3112 3113 3114 3114 3115 3115 3115 3114 3116 3117 3116 3117 3118 3119 3119 3120 3122 3124 3126 3129 3132 3134 3136 3137 3139 3140 3140 3142 3144 3146 3147 3147 3146 3149
3117 3118 3116 3115 3114 3111 3110 3110 3108 3109 3107 3107 3107 3106 3105 3105 3106 3107 3108 3108 3108 3109 3109 3109 3110 3112 3112 3112 3112 3114 3115 3116 3118 3122 3125 3127 3129 3131 3132 3133 3134 3135 3136 3139 3142 3142 3143 3142 3144
3110 3110 3109 3109 3108 3106 3103 3100 3098 3097 3100 3099 3098 3098 3097 3096 3097 3097 3098 3099 3101 3101 3102 3104 3104 3105 3106 3106 3106 3108 3110 3111 3113 3116 3120 3122 3123 3125 3126 3128 3129 3130 3131 3134 3135 3135 3137 3139 3141
3107 3106 3104 3103 3101 3100 3096 3095 3096 3094 3093 3093 3091 3090 3091 3090 3090 3089 3089 3090 3091 3094 3095 3096 3097 3100 3101 3102 3102 3103 3105 3107 3109 3111 3114 3116 3119 3120 3122 3123 3124 3124 3125 3127 3128 3130 3133 3135 3136
3102 3098 3096 3095 3095 3094 3091 3087 3085 3087 3086 3085 3084 3085 3085 3084 3083 3083 3081 3083 3084 3088 3088 3089 3091 3093 3095 3096 3097 3098 3099 3101 3103 3106 3108 3110 3111 3113 3115 3116 3117 3118 3118 3121 3123 3126 3129 3130 3130
3096 3094 3090 3095 3090 3090 3086 3081 3087 3079 3081 3081 3079 3078 3078 3078 3078 3076 3075 3076 3077 3080 3081 3084 3084 3086 3088 3090 3092 3093 3094 3095 3097 3099 3101 3103 3105 3106 3108 3109 3109 3111 3113 3117 3119 3122 3124 3125 3126
3096 3089 3087 3086 3087 3085 3083 3075 3079 3077 3076 3074 3073 3073 3071 3071 3071 3071 3070 3069 3069 3071 3073 3075 3077 3078 3080 3083 3085 3086 3087 3088 3090 3092 3093 3096 3097 3099 3100 3100 3102 3104 3108 3111 3115 3118 3119 3120 3121
3088 3083 3081 3080 3082 3079 3075 3069 3073 3072 3070 3066 3065 3064 3063 3063 3064 3064 3063 3062 3063 3065 3065 3067 3069 3071 3072 3073 3075 3078 3080 3081 3083 3085 3087 3089 3090 3091 3092 3093 3096 3098 3102 3106 3109 3111 3114 3116 3117
3083 3080 3077 3077 3077 3073 3069 3062 3066 3067 3062 3059 3057 3056 3055 3054 3055 3054 3054 3055 3056 3057 3058 3060 3061 3063 3064 3065 3067 3071 3073 3075 3076 3078 3080 3081 3084 3085 3086 3088 3090 3093 3093 3098 3102 3106 3108 3110 3113
3078 3077 3072 3069 3069 3065 3061 3049 3057 3057 3053 3051 3049 3048 3048 3048 3045 3046 3045 3046 3047 3049 3051 3050 3053 3054 3056 3057 3060 3062 3064 3067 3069 3070 3071 3073 3077 3080 3081 3082 3084 3087 3090 3093 3097 3099 3103 3106 3108
3071 3072 3071 3069 3067 3062 3056 3036 3046 3049 3046 3044 3042 3040 3041 3039 3038 3038 3039 3038 3041 3041 3042 3043 3044 3045 3047 3049 3050 3052 3053 3056 3058 3062 3063 3066 3069 3072 3076 3077 3079 3081 3084 3086 3090 3095 3097 3100 3102
3067 3067 3066 3064 3063 3056 3057 3040 3021 3038 3037 3035 3036 3033 3032 3033 3032 3032 3031 3033 3034 3035 3034 3034 3035 3035 3036 3036 3039 3041 3045 3048 3051 3054 3056 3058 3061 3064 3068 3071 3072 3075 3077 3080 3084 3087 3090 3093 3095
3061 3060 3060 3059 3056 3053 3044 3054 3005 3033 3030 3030 3028 3027 3028 3027 3027 3027 3026 3026 3026 3026 3026 3026 3025 3025 3026 3026 3029 3032 3036 3039 3041 3044 3047 3049 3052 3055 3058 3062 3065 3067 3071 3074 3077 3080 3085 3087 3090
3057 3057 3056 3053 3052 3044 3036 3046 3010 3020 3024 3023 3022 3021 3019 3019 3019 3017 3017 3016 3017 3016 3015 3014 3015 3015 3015 3014 3016 3020 3024 3028 3032 3035 3037 3040 3043 3046 3050 3053 3057 3061 3064 3068 3071 3074 3078 3081 3083
3051 3052 3051 3046 3041 3031 3030 3024 3008 3014 3019 3014 3013 3013 3010 3010 3009 3008 3006 3007 3005 3004 3003 3003 3003 3004 3004 3003 3004 3006 3010 3016 3021 3024 3028 3032 3034 3037 3040 3044 3048 3053 3056 3060 3064 3067 3071 3075 3077
3048 3051 3051 3039 3027 3021 3022 3014 3000 3008 3011 3009 3007 3003 3001 2998 2998 2997 2996 2993 2992 2992 2991 2990 2990 2991 2992 2994 2994 2995 2997 3002 3008 3011 3016 3021 3025 3029 3032 3035 3040 3045 3050 3053 3057 3061 3065 3068 3071
3044 3044 3044 3039 3033 3032 3015 3010 3001 3004 3003 3001 3001 2998 2991 2990 2987 2984 2983 2980 2979 2978 2979 2979 2979 2978 2980 2982 2983 2984 2984 2990 2995 2999 3004 3008 3013 3017 3021 3026 3031 3037 3042 3047 3050 3055 3058 3061 3065
3039 3040 3038 3035 3027 3015 3002 3000 2990 2996 2993 2992 2989 2988 2985 2982 2980 2976 2972 2968 2966 2966 2965 2966 2965 2966 2968 2970 2970 2973 2973 2978 2983 2987 2990 2996 2999 3004 3010 3016 3021 3027 3035 3040 3043 3048 3051 3056 3059
3038 3036 3035 3032 3027 3016 3005 2991 2990 2987 2987 2985 2982 2979 2975 2971 2968 2966 2963 2960 2954 2956 2955 2953 2952 2952 2953 2955 2957 2959 2960 2966 2972 2975 2976 2981 2986 2991 2997 3005 3011 3020 3027 3033 3037 3042 3046 3049 3052
3028 3028 3028 3029 3022 3014 3006 2988 2990 2986 2982 2978 2970 2965 2960 2956 2953 2949 2949 2946 2946 2943 2944 2942 2942 2940 2939 2940 2945 2946 2948 2954 2959 2958 2966 2967 2974 2982 2985 2993 3000 3013 3020 3028 3033 3037 3040 3044 3046